• In Hungary
  • List of Countries
  • For 7 days
  • Water Temperature
  • Satellite Maps
  • Weather Map
  • News
  • Weather Widgets
  • user-avatar
    Login

    Hourly Weather Puerto Maldonado

    Today, 11 December, Monday

    Time Temperature Precipitation Wind Pressure Humidity
    00:00 +26°C° 4.2 mm 1 mps 740 mmHg 95%
    01:00 +26°C° 4.2 mm 1 mps 740 mmHg 97%
    02:00 +26°C° 1.2 mm 1 mps 740 mmHg 97%
    03:00 +26°C° 1.2 mm 1 mps 740 mmHg 97%
    04:00 +25°C° 1.2 mm 1 mps 740 mmHg 97%
    05:00 +26°C° 0.3 mm 1 mps 740 mmHg 96%
    06:00 +24°C° 0.3 mm 0 mps 741 mmHg 95%
    07:00 +25°C° 0.3 mm 0 mps 741 mmHg 94%
    08:00 +29°C° 0.3 mm 1 mps 741 mmHg 83%
    09:00 +31°C° 0.3 mm 1 mps 741 mmHg 73%
    10:00 +33°C° 0.3 mm 1 mps 741 mmHg 62%
    11:00 +34°C° 0.1 mm 1 mps 741 mmHg 56%
    12:00 +35°C° 0.1 mm 1 mps 740 mmHg 50%
    13:00 +36°C° 0.1 mm 1 mps 739 mmHg 44%
    14:00 +36°C° 0 mm 1 mps 739 mmHg 45%
    15:00 +36°C° 0 mm 1 mps 738 mmHg 47%
    16:00 +35°C° 0 mm 1 mps 738 mmHg 48%
    17:00 +33°C° 0 mm 1 mps 738 mmHg 56%
    18:00 +31°C° 0 mm 1 mps 739 mmHg 63%
    19:00 +29°C° 0 mm 1 mps 739 mmHg 71%
    20:00 +29°C° 0.2 mm 1 mps 740 mmHg 75%
    21:00 +28°C° 0.2 mm 1 mps 740 mmHg 79%
    22:00 +27°C° 0.2 mm 1 mps 741 mmHg 83%
    23:00 +27°C° 0.2 mm 1 mps 740 mmHg 85%

    Tomorrow, 12 December, Tuesday

    Time Temperature Precipitation Wind Pressure Humidity
    00:00 +26°C° 0.2 mm 1 mps 740 mmHg 88%
    01:00 +24°C° 0.2 mm 0 mps 740 mmHg 90%
    02:00 +25°C° 0.1 mm 1 mps 740 mmHg 91%
    03:00 +25°C° 0.1 mm 1 mps 740 mmHg 93%
    04:00 +25°C° 0.1 mm 1 mps 740 mmHg 94%
    05:00 +26°C° 0 mm 1 mps 740 mmHg 89%
    06:00 +27°C° 0 mm 1 mps 741 mmHg 84%
    07:00 +28°C° 0 mm 1 mps 741 mmHg 79%
    08:00 +31°C° 0 mm 1 mps 741 mmHg 66%
    09:00 +34°C° 0 mm 1 mps 741 mmHg 52%
    10:00 +37°C° 0 mm 1 mps 742 mmHg 39%
    11:00 +39°C° 0 mm 1 mps 741 mmHg 37%
    12:00 +39°C° 0 mm 1 mps 740 mmHg 35%
    13:00 +40°C° 0 mm 1 mps 739 mmHg 33%
    14:00 +39°C° 0 mm 1 mps 738 mmHg 36%
    15:00 +37°C° 0 mm 1 mps 738 mmHg 39%
    16:00 +37°C° 0 mm 1 mps 737 mmHg 42%
    17:00 +35°C° 0 mm 1 mps 738 mmHg 50%
    18:00 +32°C° 0 mm 1 mps 738 mmHg 58%
    19:00 +30°C° 0 mm 1 mps 739 mmHg 66%
    20:00 +28°C° 1 mm 1 mps 739 mmHg 75%
    21:00 +27°C° 1 mm 1 mps 740 mmHg 84%
    22:00 +25°C° 1 mm 1 mps 740 mmHg 93%
    23:00 +25°C° 1.5 mm 1 mps 740 mmHg 94%

    Day after tomorrow, 13 December, Wednesday

    Time Temperature Precipitation Wind Pressure Humidity
    00:00 +25°C° 1.5 mm 1 mps 740 mmHg 96%
    01:00 +24°C° 1.5 mm 1 mps 740 mmHg 98%
    02:00 +22°C° 0.6 mm 0 mps 740 mmHg 98%
    03:00 +22°C° 0.6 mm 0 mps 740 mmHg 98%
    04:00 +22°C° 0.6 mm 0 mps 740 mmHg 98%
    05:00 +23°C° 0.1 mm 0 mps 741 mmHg 97%
    06:00 +23°C° 0.1 mm 0 mps 741 mmHg 95%
    07:00 +24°C° 0.1 mm 0 mps 742 mmHg 93%
    08:00 +26°C° 0.3 mm 0 mps 742 mmHg 84%
    09:00 +29°C° 0.3 mm 0 mps 742 mmHg 74%
    10:00 +31°C° 0.3 mm 0 mps 742 mmHg 65%
    11:00 +32°C° 0.3 mm 0 mps 742 mmHg 58%
    12:00 +35°C° 0.3 mm 1 mps 741 mmHg 50%
    13:00 +36°C° 0.3 mm 1 mps 741 mmHg 43%
    14:00 +36°C° 0 mm 1 mps 740 mmHg 44%
    15:00 +35°C° 0 mm 1 mps 739 mmHg 46%
    16:00 +35°C° 0 mm 1 mps 739 mmHg 47%
    17:00 +33°C° 0 mm 1 mps 739 mmHg 54%
    18:00 +31°C° 0 mm 1 mps 740 mmHg 61%
    19:00 +29°C° 0 mm 1 mps 740 mmHg 68%
    20:00 +28°C° 0.1 mm 1 mps 741 mmHg 72%
    21:00 +26°C° 0.1 mm 0 mps 741 mmHg 75%
    22:00 +25°C° 0.1 mm 0 mps 742 mmHg 79%
    23:00 +24°C° 0.4 mm 0 mps 741 mmHg 82%

    14 December, Thursday

    Time Temperature Precipitation Wind Pressure Humidity
    00:00 +24°C° 0.4 mm 0 mps 741 mmHg 85%
    01:00 +25°C° 0.4 mm 1 mps 741 mmHg 87%
    02:00 +23°C° 0.5 mm 0 mps 741 mmHg 89%
    03:00 +23°C° 0.5 mm 0 mps 740 mmHg 91%
    04:00 +23°C° 0.5 mm 0 mps 740 mmHg 93%
    05:00 +23°C° 0 mm 0 mps 741 mmHg 90%
    06:00 +24°C° 0 mm 0 mps 742 mmHg 87%
    07:00 +25°C° 0 mm 0 mps 742 mmHg 85%
    08:00 +28°C° 0 mm 0 mps 742 mmHg 72%
    09:00 +31°C° 0 mm 0 mps 742 mmHg 60%
    10:00 +36°C° 0 mm 1 mps 742 mmHg 47%
    11:00 +35°C° 0 mm 0 mps 742 mmHg 43%
    12:00 +37°C° 0 mm 0 mps 741 mmHg 38%
    13:00 +38°C° 0 mm 0 mps 740 mmHg 33%
    14:00 +37°C° 0 mm 0 mps 739 mmHg 37%
    15:00 +35°C° 0 mm 0 mps 739 mmHg 40%
    16:00 +36°C° 0 mm 1 mps 738 mmHg 43%
    17:00 +34°C° 0 mm 1 mps 739 mmHg 48%
    18:00 +31°C° 0 mm 0 mps 739 mmHg 53%
    19:00 +29°C° 0 mm 0 mps 740 mmHg 58%
    20:00 +28°C° 0.1 mm 0 mps 740 mmHg 63%
    21:00 +29°C° 0.1 mm 1 mps 741 mmHg 68%
    22:00 +28°C° 0.1 mm 1 mps 742 mmHg 73%
    23:00 +27°C° 0.3 mm 1 mps 741 mmHg 78%

    15 December, Friday

    Time Temperature Precipitation Wind Pressure Humidity
    00:00 +27°C° 0.3 mm 1 mps 741 mmHg 84%
    01:00 +26°C° 0.3 mm 1 mps 741 mmHg 89%
    02:00 +25°C° 1 mm 1 mps 741 mmHg 92%
    03:00 +23°C° 1 mm 0 mps 741 mmHg 95%
    04:00 +23°C° 1 mm 0 mps 741 mmHg 97%
    05:00 +23°C° 0.3 mm 0 mps 741 mmHg 95%
    06:00 +24°C° 0.3 mm 0 mps 742 mmHg 94%
    07:00 +25°C° 0.3 mm 0 mps 742 mmHg 92%
    08:00 +28°C° 0.2 mm 0 mps 743 mmHg 79%
    09:00 +31°C° 0.2 mm 0 mps 743 mmHg 66%
    10:00 +34°C° 0.2 mm 0 mps 743 mmHg 53%
    11:00 +34°C° 0.1 mm 0 mps 742 mmHg 50%
    12:00 +34°C° 0.1 mm 0 mps 741 mmHg 47%
    13:00 +36°C° 0.1 mm 1 mps 740 mmHg 43%
    14:00 +36°C° 0 mm 1 mps 739 mmHg 45%
    15:00 +36°C° 0 mm 1 mps 738 mmHg 47%
    16:00 +35°C° 0 mm 1 mps 738 mmHg 48%
    17:00 +33°C° 0 mm 1 mps 738 mmHg 55%
    18:00 +29°C° 0 mm 0 mps 739 mmHg 61%
    19:00 +27°C° 0 mm 0 mps 739 mmHg 68%
    20:00 +26°C° 0 mm 0 mps 740 mmHg 69%
    21:00 +26°C° 0 mm 0 mps 740 mmHg 71%
    22:00 +25°C° 0 mm 0 mps 741 mmHg 72%
    23:00 +25°C° 0 mm 0 mps 740 mmHg 73%

    16 December, Saturday

    Time Temperature Precipitation Wind Pressure Humidity
    00:00 +25°C° 0 mm 0 mps 740 mmHg 75%
    01:00 +24°C° 0 mm 0 mps 740 mmHg 76%
    02:00 +24°C° 0 mm 0 mps 740 mmHg 78%
    03:00 +23°C° 0 mm 0 mps 740 mmHg 80%
    04:00 +23°C° 0 mm 0 mps 740 mmHg 82%
    05:00 +26°C° 0 mm 1 mps 740 mmHg 79%
    06:00 +27°C° 0 mm 1 mps 741 mmHg 75%
    07:00 +29°C° 0 mm 1 mps 741 mmHg 72%
    08:00 +31°C° 0 mm 1 mps 741 mmHg 62%
    09:00 +34°C° 0 mm 1 mps 741 mmHg 53%
    10:00 +37°C° 0 mm 1 mps 741 mmHg 44%
    11:00 +39°C° 0 mm 1 mps 740 mmHg 40%
    12:00 +41°C° 0 mm 1 mps 739 mmHg 35%
    13:00 +39°C° 0 mm 0 mps 738 mmHg 31%
    14:00 +41°C° 0 mm 1 mps 738 mmHg 34%
    15:00 +40°C° 0 mm 1 mps 737 mmHg 37%
    16:00 +37°C° 0 mm 1 mps 737 mmHg 40%
    17:00 +35°C° 0 mm 1 mps 737 mmHg 47%
    18:00 +33°C° 0 mm 1 mps 737 mmHg 54%
    19:00 +31°C° 0 mm 1 mps 738 mmHg 61%
    20:00 +31°C° 0 mm 1 mps 738 mmHg 64%
    21:00 +30°C° 0 mm 1 mps 739 mmHg 68%
    22:00 +29°C° 0 mm 1 mps 739 mmHg 72%
    23:00 +29°C° 0 mm 1 mps 739 mmHg 75%
    Show more